Weather in Romashkino

Russia / Orenburg Oblast     52°29′08″N   51°48′21″E
temp.,
°C
wind,
m/s
gust,
m/s
humid.,
%
clouds,
%
prec.,
mm/h
press.,
hPa
HPBL,
m
24 may, tue
tue2423:00+6sse118635 0.0 100210
02:00+6s11885 0.0 100310
05:00+5wsw119068 0.0 100410
08:00+8nnw338626 0.0 1006291
11:00+11nnw3363100 0.0 10071064
14:00+13nnw3250100 0.0 10071499
17:00+14n2145100 0.0 10071652
20:00+13nnw3458100 0.0 1007126
25 may, wed
wed2523:00+9nnw2259100 0.0 100812
02:00+8wsw1159100 0.0 100810
05:00+7wsw226567 0.0 100818
08:00+10wsw46675 0.0 1008231
11:00+14wsw695661 0.1 10071470
14:00+15wsw9114799 0.4 10092269
17:00+11wnw9115660 0.5 10111344
20:00+9wnw585682 0.0 10131445
26 may, thu
thu2623:00+6w367354 0.1 1014133
02:00+4w36825 0.0 1014117
05:00+3w33813 0.0 101554
08:00+7w45701 0.0 1016306
11:00+11w44525 0.0 10161305
14:00+13wsw454494 0.0 10162050
17:00+13w5644100 0.0 10161940
20:00+12w355682 0.0 1016357
27 may, fri
fri2723:00+8wsw226716 0.0 101611
02:00+7ssw337555 0.0 101644
05:00+7s4107999 0.0 1015204
08:00+10s7127470 0.0 1014409
11:00+12s81377100 0.4 1012601
14:00+15ssw91568100 0.2 10111697
17:00+14ssw81177100 2.6 10111074
20:00+14ssw7127884 0.6 1009699
28 may, sat
sat2823:00+12ssw61390100 2.0 1009500
02:00+11sw612942 1.9 1009344
05:00+9wsw510955 1.9 1011257
08:00+12wsw588389 0.0 1012371
11:00+16wsw686287 0.0 10131040
14:00+19sw6848100 0.0 10141764
17:00+21sw6114528 0.0 10132185
20:00+17ssw6126892 0.0 1013492